User: anonymous   Login
Location: Unspecified
(0.0000°N, 0.0000°E)
Time: 16:37:11
(UTC+02:00)
Language:

YAOGAN 3 - Orbit

View from above orbital plane
View from above orbital plane
View from above satellite
View from above satellite

Ground track
Ground track

The orbit data is extracted from the following two-line orbital elements,

1 32289U 07055A   15111.21312791  .00001033  00000-0  14214-3 0  9998
2 32289 097.9610 105.9027 0001243 064.0342 296.1009 14.80400283402138
Epoch (UTC): 21 April 2015 05:06:54
Eccentricity: 0.0001243
inclination: 97.9610°
perigee height: 627 km
apogee height: 629 km
right ascension of ascending node: 105.9027°
argument of perigee: 64.0342°
revolutions per day: 14.80400283
mean anomaly at epoch: 296.1009°
orbit number at epoch: 40213

The dashed part of the orbit path shows where the satellite is in the earth's shadow,  

DLR